User: anonymous   Login
Location: Vanderbilt Beach
(26.2700°N, 81.7900°W)
Time: 21:17:31
(UTC-05:00)
Language:

AO-7 - Orbit

View from above orbital plane
View from above orbital plane
View from above satellite
View from above satellite

Ground track
Ground track

The orbit data is extracted from the following two-line orbital elements,

1  7530U 74089B   20335.55693763 -.00000049  00000-0 -20230-4 0  9996
2  7530 101.8257 304.5089 0012499  44.8019  66.5162 12.53646332107044
Epoch (UTC): 30 November 2020 13:21:59
Eccentricity: 0.0012499
inclination: 101.8257°
perigee height: 1439 km
apogee height: 1459 km
right ascension of ascending node: 304.5089°
argument of perigee: 44.8019°
revolutions per day: 12.53646332
mean anomaly at epoch: 66.5162°
orbit number at epoch: 10704

The dashed part of the orbit path shows where the satellite is in the earth's shadow,  

DLR